Taylorville, IL

9:24 AM CDT on June 24, 2017 (GMT -0500)
Taylorville Municipal

Weather History for KTAZ - March, 2013

Change the Weather History Date:

Monday, March 25, 2013

  Actual Average (KSPI) Record (KSPI)
Temperature  
Mean Temperature 30 °F -  
Max Temperature 35 °F 50 °F 82 °F (1907)
Min Temperature 26 °F 33 °F 7 °F (1960)
Degree Days  
Heating Degree Days 34    
Moisture  
Dew Point 26 °F    
Average Humidity 83    
Maximum Humidity 100    
Minimum Humidity 65    
Precipitation  
Precipitation 0.08 in - - ()
Sea Level Pressure  
Sea Level Pressure 29.91 in    
Wind  
Wind Speed 15 mph (NW)    
Max Wind Speed 24 mph    
Max Gust Speed 25 mph    
Visibility 8 miles    
Events Snow    
Averages and records for this station are not official NWS values.
T = Trace of Precipitation, MM = Missing Value Source: NWS Daily Summary

Daily Weather History Graph

Daily Weather History Graph

Search for Another Location

Airport or City:

Trip Planner

Search our weather history database for the weather conditions in past years. The results will help you decide how hot, cold, wet, or windy it might be!

Date:

Astronomy

Mar. 25, 2013 Rise Set
Actual Time 6:52 AM CDT 7:14 PM CDT
Civil Twilight 6:25 AM CDT 7:41 PM CDT
Nautical Twilight 5:53 AM CDT 8:13 PM CDT
Astronomical Twilight 5:21 AM CDT 8:45 PM CDT
Moon 5:46 PM CDT (3/25) 5:35 AM CDT (3/25)
Length of Visible Light 13h 16m
Length of Day
12h 22m
Waxing Gibbous, 96% of the Moon is Illuminated
Mar 25
Waxing Gibbous
Mar 27
Full
Apr 2
Last Quarter
Apr 10
New
Apr 18
First Quarter

Hourly Weather History & Observations

Time (CDT) Temp. Windchill Dew Point Humidity Pressure Visibility Wind Dir Wind Speed Gust Speed Precip Events Conditions
12:15 AM 28.4 °F 17.5 °F 28.4 °F 100% 29.71 in 1.8 mi NW 13.8 mph 21.9 mph N/A Snow Light Snow
12:35 AM 28.4 °F 17.5 °F 28.4 °F 100% 29.72 in 2.0 mi NW 13.8 mph 21.9 mph N/A Snow Light Snow
12:55 AM 28.4 °F 17.0 °F 28.4 °F 100% 29.73 in 2.0 mi NW 15.0 mph 21.9 mph N/A Snow Light Snow
1:15 AM 28.4 °F 17.0 °F 28.4 °F 100% 29.73 in 2.5 mi NW 15.0 mph 20.7 mph N/A Snow Light Snow
1:35 AM 28.4 °F 17.5 °F 28.4 °F 100% 29.74 in 2.0 mi NW 13.8 mph 20.7 mph N/A Snow Light Snow
1:55 AM 28.4 °F 16.2 °F 28.4 °F 100% 29.74 in 2.0 mi NW 17.3 mph 21.9 mph N/A Snow Light Snow
2:15 AM 28.4 °F 17.0 °F 28.4 °F 100% 29.74 in 2.5 mi NW 15.0 mph - N/A Snow Light Snow
2:35 AM 28.4 °F 17.0 °F 28.4 °F 100% 29.74 in 3.0 mi NW 15.0 mph 23.0 mph N/A Snow Light Snow
2:55 AM 28.4 °F 17.0 °F 28.4 °F 100% 29.74 in 3.0 mi NW 15.0 mph - N/A Snow Light Snow
3:15 AM 28.4 °F 17.5 °F 28.4 °F 100% 29.75 in 4.0 mi NW 13.8 mph 21.9 mph N/A Snow Light Snow
3:35 AM 28.4 °F 18.0 °F 26.6 °F 93% 29.75 in 4.0 mi NW 12.7 mph 20.7 mph N/A Snow Light Snow
3:55 AM 28.4 °F 18.0 °F 26.6 °F 93% 29.75 in 3.0 mi NW 12.7 mph - N/A Snow Light Snow
4:15 AM 28.4 °F 17.5 °F 26.6 °F 93% 29.76 in 2.5 mi NW 13.8 mph 18.4 mph N/A Snow Light Snow
4:35 AM 28.4 °F 17.5 °F 26.6 °F 93% 29.76 in 2.5 mi NW 13.8 mph 18.4 mph N/A Snow Light Snow
4:55 AM 28.4 °F 17.5 °F 26.6 °F 93% 29.76 in 3.0 mi NW 13.8 mph - N/A Snow Light Snow
5:15 AM 26.6 °F 14.7 °F 26.6 °F 100% 29.77 in 3.0 mi NW 15.0 mph 20.7 mph N/A Snow Light Snow
5:35 AM 26.6 °F 15.7 °F 26.6 °F 100% 29.77 in 5.0 mi NW 12.7 mph 19.6 mph N/A Snow Light Snow
5:55 AM 26.6 °F 14.7 °F 26.6 °F 100% 29.78 in 7.0 mi NW 15.0 mph 21.9 mph N/A Snow Light Snow
6:15 AM 26.6 °F 14.7 °F 24.8 °F 93% 29.78 in 4.0 mi NW 15.0 mph 20.7 mph N/A Snow Light Snow
6:35 AM 26.6 °F 14.7 °F 24.8 °F 93% 29.79 in 10.0 mi NW 15.0 mph - N/A Snow Light Snow
6:55 AM 26.6 °F 14.7 °F 24.8 °F 93% 29.80 in 3.0 mi NW 15.0 mph - N/A Snow Light Snow
7:15 AM 26.6 °F 15.7 °F 26.6 °F 100% 29.81 in 2.0 mi NW 12.7 mph - N/A Snow Light Snow
7:35 AM 28.4 °F 18.5 °F 26.6 °F 93% 29.82 in 1.5 mi NW 11.5 mph 18.4 mph N/A Snow Light Snow
7:55 AM 28.4 °F 17.5 °F 26.6 °F 93% 29.83 in 4.0 mi NW 13.8 mph 20.7 mph N/A Snow Light Snow
8:15 AM 28.4 °F 18.0 °F 26.6 °F 93% 29.83 in 5.0 mi NW 12.7 mph 21.9 mph N/A   Overcast
8:35 AM 28.4 °F 17.5 °F 26.6 °F 93% 29.84 in 2.5 mi NW 13.8 mph 23.0 mph N/A Snow Light Snow
8:55 AM 28.4 °F 17.5 °F 26.6 °F 93% 29.85 in 7.0 mi NW 13.8 mph 21.9 mph N/A Snow Light Snow
9:15 AM 30.2 °F 19.8 °F 26.6 °F 86% 29.85 in 10.0 mi NW 13.8 mph - N/A Snow Light Snow
9:35 AM 30.2 °F 19.3 °F 24.8 °F 80% 29.86 in 10.0 mi NW 15.0 mph 21.9 mph N/A   Overcast
9:55 AM 32.0 °F 21.2 °F 24.8 °F 75% 29.87 in 10.0 mi NW 16.1 mph - N/A   Mostly Cloudy
10:15 AM 32.0 °F 20.5 °F 24.8 °F 75% 29.88 in 10.0 mi NW 18.4 mph 23.0 mph N/A   Mostly Cloudy
10:35 AM 30.2 °F 16.5 °F 23.0 °F 75% 29.89 in 10.0 mi NNW 24.2 mph - 0.01 in   Overcast
10:55 AM 30.2 °F 17.4 °F 23.0 °F 75% 29.90 in 10.0 mi NNW 20.7 mph - N/A   Overcast
11:15 AM 30.2 °F 17.8 °F 24.8 °F 80% 29.90 in 10.0 mi NW 19.6 mph 25.3 mph 0.01 in   Overcast
11:35 AM 32.0 °F 20.8 °F 24.8 °F 75% 29.91 in 10.0 mi NW 17.3 mph - 0.02 in   Overcast
11:55 AM 30.2 °F 18.1 °F 24.8 °F 80% 29.92 in 7.0 mi NW 18.4 mph 25.3 mph 0.01 in Snow Light Snow
12:15 PM 32.0 °F 20.5 °F 24.8 °F 75% 29.92 in 10.0 mi NNW 18.4 mph - 0.01 in   Overcast
12:35 PM 33.8 °F 23.2 °F 24.8 °F 70% 29.92 in 10.0 mi NW 17.3 mph 23.0 mph 0.02 in   Mostly Cloudy
12:55 PM 33.8 °F 23.2 °F 24.8 °F 70% 29.92 in 10.0 mi NW 17.3 mph - N/A   Mostly Cloudy
1:15 PM 33.8 °F 22.8 °F 24.8 °F 70% 29.93 in 10.0 mi NNW 18.4 mph - 0.02 in   Mostly Cloudy
1:35 PM 33.8 °F 23.2 °F 24.8 °F 70% 29.93 in 10.0 mi NW 17.3 mph 20.7 mph 0.02 in   Overcast
1:55 PM 33.8 °F 22.8 °F 24.8 °F 70% 29.94 in 10.0 mi NW 18.4 mph 23.0 mph N/A   Mostly Cloudy
2:15 PM 33.8 °F 23.5 °F 24.8 °F 70% 29.94 in 10.0 mi NW 16.1 mph - 0.01 in   Overcast
2:35 PM 33.8 °F 23.5 °F 24.8 °F 70% 29.94 in 10.0 mi NW 16.1 mph 23.0 mph 0.01 in   Overcast
2:55 PM 33.8 °F 24.8 °F 24.8 °F 70% 29.95 in 10.0 mi NW 12.7 mph - N/A   Overcast
3:15 PM 35.6 °F 27.1 °F 24.8 °F 65% 29.96 in 10.0 mi WNW 12.7 mph 16.1 mph N/A   Overcast
3:35 PM 35.6 °F 25.9 °F 24.8 °F 65% 29.96 in 10.0 mi WNW 16.1 mph 19.6 mph N/A   Overcast
3:55 PM 35.6 °F 25.9 °F 24.8 °F 65% 29.97 in 10.0 mi WNW 16.1 mph - N/A   Overcast
4:15 PM 35.6 °F 25.5 °F 24.8 °F 65% 29.98 in 10.0 mi WNW 17.3 mph 21.9 mph N/A   Overcast
4:35 PM 35.6 °F 27.1 °F 24.8 °F 65% 29.99 in 10.0 mi WNW 12.7 mph 20.7 mph N/A   Overcast
4:55 PM 35.6 °F 25.9 °F 24.8 °F 65% 29.99 in 10.0 mi WNW 16.1 mph - N/A   Overcast
5:15 PM 33.8 °F 23.2 °F 24.8 °F 70% 30.00 in 10.0 mi WNW 17.3 mph - N/A   Overcast
5:35 PM 33.8 °F 23.9 °F 24.8 °F 70% 30.02 in 10.0 mi WNW 15.0 mph 23.0 mph N/A   Overcast
5:55 PM 33.8 °F 23.2 °F 24.8 °F 70% 30.02 in 10.0 mi WNW 17.3 mph - N/A   Overcast
6:15 PM 32.0 °F 22.1 °F 24.8 °F 75% 30.04 in 10.0 mi WNW 13.8 mph 21.9 mph N/A   Mostly Cloudy
6:35 PM 32.0 °F 21.6 °F 24.8 °F 75% 30.04 in 10.0 mi WNW 15.0 mph - N/A   Mostly Cloudy
6:55 PM 30.2 °F 19.8 °F 24.8 °F 80% 30.06 in 10.0 mi WNW 13.8 mph - N/A   Overcast
7:15 PM 30.2 °F 19.3 °F 24.8 °F 80% 30.06 in 10.0 mi WNW 15.0 mph 20.7 mph N/A   Overcast
7:35 PM 30.2 °F 20.2 °F 24.8 °F 80% 30.07 in 10.0 mi WNW 12.7 mph 20.7 mph N/A   Overcast
7:55 PM 30.2 °F 20.8 °F 24.8 °F 80% 30.08 in 10.0 mi WNW 11.5 mph - N/A   Overcast
8:15 PM 30.2 °F 21.3 °F 24.8 °F 80% 30.09 in 10.0 mi WNW 10.4 mph 19.6 mph N/A   Overcast
8:35 PM 30.2 °F 20.8 °F 24.8 °F 80% 30.09 in 10.0 mi WNW 11.5 mph 18.4 mph N/A Snow Light Snow
8:55 PM 30.2 °F 19.8 °F 24.8 °F 80% 30.10 in 10.0 mi WNW 13.8 mph - N/A   Overcast
9:15 PM 30.2 °F 20.8 °F 24.8 °F 80% 30.10 in 10.0 mi WNW 11.5 mph 16.1 mph N/A   Overcast
9:35 PM 30.2 °F 20.2 °F 24.8 °F 80% 30.11 in 10.0 mi WNW 12.7 mph - N/A   Overcast
9:55 PM 30.2 °F 20.8 °F 24.8 °F 80% 30.11 in 10.0 mi WNW 11.5 mph - N/A   Overcast
10:15 PM 30.2 °F 20.2 °F 24.8 °F 80% 30.12 in 10.0 mi WNW 12.7 mph - N/A   Overcast
10:35 PM 30.2 °F 21.3 °F 24.8 °F 80% 30.12 in 10.0 mi WNW 10.4 mph - N/A Snow Light Snow
10:55 PM 28.4 °F 19.1 °F 24.8 °F 86% 30.12 in 7.0 mi West 10.4 mph - N/A Snow Light Snow
11:15 PM 28.4 °F 19.1 °F 24.8 °F 86% 30.13 in 10.0 mi West 10.4 mph - N/A   Overcast
11:35 PM 28.4 °F 19.7 °F 24.8 °F 86% 30.13 in 10.0 mi WNW 9.2 mph - N/A   Overcast
11:55 PM 28.4 °F 19.1 °F 24.8 °F 86% 30.13 in 10.0 mi WNW 10.4 mph - N/A   Overcast